Location: B?lite?ti
(46.2833°N, 22.7333°E)
Time: 17:27:51
(UTC+00:00)

Aureole 3 Rocket - Pass Details

Date: 24 January 2021
Orbit: 398 x 1740 km, 82.5° (Epoch: 28 February)

Event Time Altitude Azimuth Distance (km) Brightness Sun altitude
Rises 17:39:10 0° 344° (NNW) 2,326 6.2 -23.5°
Reaches altitude 10° 17:41:07 10° 337° (NNW) 1,487 5.2 -23.8°
Maximum altitude 17:44:05 43° 264° (W) 640 3.5 -24.4°
Drops below altitude 10° 17:47:33 10° 192° (SSW) 1,732 5.5 -25.0°
Sets 17:49:58 0° 186° (S) 2,776 6.5 -25.4°
